This demonstration page uses our WeatherBlox Daily Observations layout. Learn more.

Left ArrowRight Arrow

Hourly Observations for July 12, 2020

Temp ( °F °C ) Dew Point ( °F °C ) Humidity (%) Winds ( mph kmh ) Pressure ( in mb ) Visibility ( mi km ) Precip ( " mm )
12:53 am 00:53 Clear 66 18.9 62 16.7 87 87 Calm 30.01 1016 10 16 0.00 0.00
1:53 am 01:53 Clear 66 18.9 61 16.1 84 84 Calm 30.01 1016 10 16 0.00 0.00
2:53 am 02:53 Clear 63 17.2 60 15.6 90 90 WSW 5 7 30.03 1017 10 16 0.00 0.00
3:53 am 03:53 Clear 63 17.2 60 15.6 90 90 WSW 3 6 30.03 1017 10 16 0.00 0.00
4:53 am 04:53 Clear 63 17.2 59 15 87 87 W 6 9 30.04 1017 10 16 0.00 0.00
5:53 am 05:53 Clear 62 16.7 59 15 90 90 Calm 30.05 1018 10 16 0.00 0.00
6:53 am 06:53 Sunny 61 16.1 58 14.4 90 90 NE 5 7 30.05 1018 7 11 0.00 0.00
7:53 am 07:53 Sunny 67 19.4 61 16.1 81 81 NE 3 6 30.05 1018 10 16 0.00 0.00
8:53 am 08:53 Sunny 72 22.2 62 16.7 71 71 NE 6 9 30.05 1018 10 16 0.00 0.00
9:53 am 09:53 Sunny 75 23.9 61 16.1 62 62 E 6 9 30.04 1017 10 16 0.00 0.00
10:53 am 10:53 Sunny 78 25.6 61 16.1 56 56 VRB 3 6 30.04 1017 10 16 0.00 0.00
11:53 am 11:53 Sunny 80 26.7 62 16.7 54 54 VRB 3 6 30.03 1017 10 16 0.00 0.00
12:53 pm 12:53 Sunny 79 26.1 64 17.8 60 60 WNW 5 7 30.03 1017 10 16 0.00 0.00
1:53 pm 13:53 Sunny 79 26.1 64 17.8 60 60 NW 3 6 30.00 1016 10 16 0.00 0.00
2:53 pm 14:53 Sunny 80 26.7 62 16.7 54 54 E 3 6 29.95 1014 10 16 0.00 0.00
3:53 pm 15:53 Sunny 80 26.7 65 18.3 60 60 E 7 11 29.94 1014 10 16 0.00 0.00
4:53 pm 16:53 Sunny 84 28.9 66 18.9 55 55 SE 9 15 29.93 1014 10 16 0.00 0.00
5:53 pm 17:53 Sunny 83 28.3 66 18.9 57 57 ESE 10 17 29.92 1013 10 16 0.00 0.00
6:53 pm 18:53 Sunny 81 27.2 66 18.9 61 61 ESE 13 20 29.89 1012 10 16 0.00 0.00
7:53 pm 19:53 Sunny 79 26.1 66 18.9 65 65 S 10 17 29.90 1013 10 16 0.00 0.00
8:53 pm 20:53 Sunny 76 24.4 65 18.3 69 69 SE 8 13 29.91 1013 10 16 0.00 0.00
9:53 pm 21:53 Clear 74 23.3 64 17.8 71 71 SE 9 15 29.88 1012 10 16 0.00 0.00
10:53 pm 22:53 Clear 73 22.8 63 17.2 71 71 SE 13 20 29.89 1012 10 16 0.00 0.00
11:53 pm 23:53 Clear 70 21.1 62 16.7 76 76 SSE 8 13 29.91 1013 10 16 0.00 0.00

Powered by AerisWeather